TimeCST,TemperatureF,Dew PointF,Humidity,Sea Level PressureIn,VisibilityMPH,Wind Direction,Wind SpeedMPH,Gust SpeedMPH,PrecipitationIn,Events,Conditions,WindDirDegrees,DateUTC
12:56 AM,12.9,10.9,92,29.91,4.0,SSW,6.9,-,N/A,,Overcast,210,2012-12-11 06:56:00
1:56 AM,12.9,10.0,88,29.90,7.0,SSE,6.9,-,N/A,,Overcast,160,2012-12-11 07:56:00
2:37 AM,10.4,8.6,92,29.84,8.0,SSE,4.6,-,N/A,,Mostly Cloudy,150,2012-12-11 08:37:00
2:56 AM,12.0,10.0,92,29.89,8.0,SSE,3.5,-,N/A,,Mostly Cloudy,150,2012-12-11 08:56:00
3:56 AM,12.0,9.0,88,29.86,10.0,SSE,5.8,-,N/A,,Overcast,150,2012-12-11 09:56:00
4:56 AM,12.9,9.0,84,29.86,10.0,South,5.8,-,N/A,,Overcast,170,2012-12-11 10:56:00
5:56 AM,14.0,9.0,80,29.85,10.0,South,6.9,-,N/A,,Overcast,180,2012-12-11 11:56:00
6:52 AM,15.8,10.4,79,29.80,8.0,South,8.1,-,0.00,Snow,Light Snow,190,2012-12-11 12:52:00
6:56 AM,15.1,10.0,80,29.86,7.0,SSW,6.9,-,0.00,Snow,Light Snow,200,2012-12-11 12:56:00
7:56 AM,15.1,10.9,84,29.86,4.0,South,6.9,-,0.00,Snow,Light Snow,190,2012-12-11 13:56:00
8:29 AM,15.8,12.2,86,29.81,4.0,SSW,6.9,-,0.00,Snow,Light Snow,210,2012-12-11 14:29:00
8:56 AM,17.1,12.0,81,29.87,9.0,SW,5.8,-,0.00,,Overcast,230,2012-12-11 14:56:00
9:56 AM,17.1,12.0,81,29.88,10.0,SW,9.2,-,N/A,,Overcast,230,2012-12-11 15:56:00
10:56 AM,15.1,10.0,80,29.90,6.0,West,12.7,-,0.00,,Haze,260,2012-12-11 16:56:00
11:56 AM,16.0,10.9,81,29.89,9.0,WSW,8.1,-,N/A,,Overcast,250,2012-12-11 17:56:00
12:26 PM,17.6,12.2,79,29.84,9.0,West,9.2,-,N/A,,Overcast,260,2012-12-11 18:26:00
12:56 PM,18.0,12.9,81,29.90,10.0,SW,9.2,-,N/A,,Overcast,230,2012-12-11 18:56:00
1:24 PM,19.4,14.0,80,29.84,9.0,WSW,9.2,-,N/A,,Overcast,240,2012-12-11 19:24:00
1:56 PM,19.9,14.0,78,29.89,7.0,SW,9.2,-,N/A,,Overcast,230,2012-12-11 19:56:00
2:56 PM,19.9,14.0,78,29.90,4.0,SW,8.1,-,0.00,Snow,Light Snow,230,2012-12-11 20:56:00
3:51 PM,19.4,14.0,80,29.86,2.5,SW,9.2,-,0.00,Snow,Light Snow,230,2012-12-11 21:51:00
3:56 PM,19.0,14.0,81,29.92,2.5,WSW,9.2,-,0.00,Snow,Light Snow,240,2012-12-11 21:56:00
4:03 PM,19.4,14.0,80,29.87,3.0,SW,9.2,-,0.00,Snow,Light Snow,230,2012-12-11 22:03:00
4:56 PM,19.0,14.0,81,29.95,10.0,SW,8.1,-,0.00,,Overcast,230,2012-12-11 22:56:00
5:56 PM,18.0,12.9,81,29.97,10.0,WSW,8.1,-,0.00,,Partly Cloudy,250,2012-12-11 23:56:00
6:19 PM,17.6,12.2,79,29.92,10.0,WSW,9.2,-,N/A,,Mostly Cloudy,250,2012-12-12 00:19:00
6:26 PM,17.6,12.2,79,29.92,10.0,West,6.9,-,N/A,,Scattered Clouds,260,2012-12-12 00:26:00
6:56 PM,15.1,12.0,88,29.99,9.0,WSW,5.8,-,N/A,,Clear,240,2012-12-12 00:56:00
7:56 PM,12.0,10.9,95,30.01,4.0,Calm,Calm,-,N/A,,Clear,0,2012-12-12 01:56:00
8:45 PM,8.6,6.8,92,29.97,4.0,Calm,Calm,-,N/A,,Mostly Cloudy,0,2012-12-12 02:45:00
8:56 PM,9.0,6.1,88,30.03,4.0,Calm,Calm,-,N/A,,Mostly Cloudy,0,2012-12-12 02:56:00
9:03 PM,8.6,5.0,85,29.97,0.2,Calm,Calm,-,N/A,Fog,Light Freezing Fog,0,2012-12-12 03:03:00
9:53 PM,6.8,3.2,85,29.98,0.2,Calm,Calm,-,N/A,Fog,Light Freezing Fog,0,2012-12-12 03:53:00
9:56 PM,7.0,3.9,87,30.05,0.2,Calm,Calm,-,N/A,Fog,Light Freezing Fog,0,2012-12-12 03:56:00
10:56 PM,3.9,1.0,88,30.07,0.2,Calm,Calm,-,N/A,Fog,Light Freezing Fog,0,2012-12-12 04:56:00
11:23 PM,3.2,-0.4,85,30.01,0.5,Calm,Calm,-,N/A,Fog,Light Freezing Fog,0,2012-12-12 05:23:00
11:36 PM,3.2,-0.4,85,30.02,0.2,Calm,Calm,-,N/A,Fog,Light Freezing Fog,0,2012-12-12 05:36:00
11:48 PM,3.2,1.4,92,30.03,0.5,Calm,Calm,-,N/A,Fog,Light Freezing Fog,0,2012-12-12 05:48:00
11:56 PM,3.0,-0.0,87,30.09,0.2,Calm,Calm,-,N/A,Fog,Light Freezing Fog,0,2012-12-12 05:56:00